E8220 Weather Reports


time (UTC)temp
F
wind
direction
speed
knots
gust
knots
rain 1hr
in
rain 24hr
in
rain mn
in
humidity
%
barometer
mb
20260505150340 55 0.0 0.0 0.00 0.00 0.00 89 1016.6
20260505140535 54 0.0 0.0 0.00 0.00 0.00 89 1016.1
20260505120335 52 0.0 0.0 0.00 0.00 0.00 93 1015.0
20260505113221 51 0.0 0.0 0.00 0.00 0.00 93 1014.8
20260505110223 51 0.0 0.0 0.00 0.00 0.00 92 1014.7
20260505100406 52 0.0 0.0 0.00 0.00 0.00 90 1014.2
20260505093419 53 0.0 0.0 0.00 0.00 0.00 89 1013.9
20260505083117 55 0.0 0.0 0.00 0.00 0.00 87 1013.6
20260505080123 55 0.0 0.0 0.00 0.00 0.00 87 1013.2
20260505065832 56 0.0 0.0 0.00 0.00 0.00 84 1012.6
20260505062842 56 0.0 0.0 0.00 0.00 0.00 82 1012.2
20260505052618 59 0.0 0.0 0.00 0.00 0.00 75 1011.7
20260505035645 63 0.0 0.0 0.00 0.00 0.00 66 1010.7
20260505032545 65 0.0 0.0 0.00 0.00 0.00 64 1010.4
20260505025612 67 0.0 0.0 0.00 0.00 0.00 60 1010.0
20260505022446 71 0.0 0.0 0.00 0.00 0.00 54 1009.7
20260505015345 75 0.0 0.0 0.00 0.00 0.00 51 1009.5
20260505012435 76 0.0 0.0 0.00 0.00 0.00 44 1009.5
20260505005307 78 0.0 0.0 0.00 0.00 0.00 41 1009.5
20260505002207 79 0.0 0.0 0.00 0.00 0.00 39 1009.4
20260504224925 82 0.0 0.0 0.00 0.00 0.00 34 1009.9
20260504221907 82 0.0 0.0 0.00 0.00 0.00 36 1010.3
20260504214953 82 0.0 0.0 0.00 0.00 0.00 34 1010.6
20260504211941 81 0.0 0.0 0.00 0.00 0.00 40 1010.7
20260504204807 80 0.0 0.0 0.00 0.00 0.00 40 1011.0
20260504201931 80 0.0 0.0 0.00 0.00 0.00 45 1011.1
20260504195053 79 0.0 0.0 0.00 0.00 0.00 46 1011.3
20260504181558 74 0.0 0.0 0.00 0.00 0.00 49 1011.6
20260504174626 74 0.0 0.0 0.00 0.00 0.00 49 1011.5
20260504171501 71 0.0 0.0 0.00 0.00 0.00 59 1011.7